Time,TemperatureF,DewpointF,PressureIn,WindDirection,WindDirectionDegrees,WindSpeedMPH,WindSpeedGustMPH,Humidity,HourlyPrecipIn,Conditions,Clouds,dailyrainin,SoftwareType,DateUTC
2013-01-02 00:03:00,45.0,44.0,30.01,NE,34,2.0,4.0,96,0.00,,,0.76,,2013-01-02 05:03:00,
2013-01-02 00:12:00,45.0,44.0,30.01,NE,34,2.0,4.0,96,0.00,,,0.76,,2013-01-02 05:12:00,
2013-01-02 00:22:00,43.0,42.0,30.03,NE,52,3.0,12.0,95,0.00,,,0.76,,2013-01-02 05:22:00,
2013-01-02 00:33:00,41.0,40.0,30.04,NE,38,2.0,6.0,97,0.00,,,0.76,,2013-01-02 05:33:00,
2013-01-02 00:42:00,41.0,40.0,30.04,NE,38,2.0,6.0,97,0.00,,,0.76,,2013-01-02 05:42:00,
2013-01-02 00:52:00,41.0,40.0,30.04,North,1,3.0,6.0,95,0.00,,,0.76,,2013-01-02 05:52:00,
2013-01-02 01:02:00,40.0,39.0,30.03,NNE,28,2.0,7.0,95,0.00,,,0.76,,2013-01-02 06:02:00,
2013-01-02 01:12:00,40.0,39.0,30.03,NNE,28,2.0,7.0,95,0.00,,,0.76,,2013-01-02 06:12:00,
2013-01-02 01:22:00,40.0,39.0,30.04,NNE,14,2.0,7.0,95,0.00,,,0.76,,2013-01-02 06:22:00,
2013-01-02 01:32:00,40.0,39.0,30.05,North,10,3.0,6.0,95,0.00,,,0.76,,2013-01-02 06:32:00,
2013-01-02 01:42:00,40.0,39.0,30.05,North,10,3.0,6.0,95,0.00,,,0.76,,2013-01-02 06:42:00,
2013-01-02 01:52:00,40.0,38.0,30.05,NE,44,3.0,6.0,94,0.00,,,0.76,,2013-01-02 06:52:00,
2013-01-02 02:02:00,40.0,39.0,30.03,North,360,3.0,6.0,95,0.00,,,0.76,,2013-01-02 07:02:00,
2013-01-02 02:12:00,40.0,39.0,30.03,North,360,3.0,6.0,95,0.00,,,0.76,,2013-01-02 07:12:00,
2013-01-02 02:22:00,40.0,39.0,30.05,NNE,31,0.0,5.0,95,0.00,,,0.76,,2013-01-02 07:22:00,
2013-01-02 02:32:00,40.0,38.0,30.06,NNE,31,0.0,2.0,94,0.00,,,0.76,,2013-01-02 07:32:00,
2013-01-02 02:42:00,40.0,38.0,30.06,NNE,31,0.0,2.0,94,0.00,,,0.76,,2013-01-02 07:42:00,
2013-01-02 02:52:00,40.0,38.0,30.06,NNE,31,1.0,3.0,94,0.00,,,0.76,,2013-01-02 07:52:00,
2013-01-02 03:02:00,39.0,37.0,30.06,NNE,31,1.0,2.0,94,0.00,,,0.76,,2013-01-02 08:02:00,
2013-01-02 03:12:00,39.0,37.0,30.06,NNE,31,1.0,2.0,94,0.00,,,0.76,,2013-01-02 08:12:00,
2013-01-02 03:22:00,39.0,37.0,30.06,NNE,31,1.0,2.0,94,0.00,,,0.76,,2013-01-02 08:22:00,
2013-01-02 03:32:00,39.0,37.0,30.07,NNE,31,1.0,2.0,94,0.00,,,0.76,,2013-01-02 08:32:00,
2013-01-02 03:42:00,39.0,37.0,30.07,NNE,31,1.0,2.0,94,0.00,,,0.76,,2013-01-02 08:42:00,
2013-01-02 03:52:00,39.0,37.0,30.06,North,360,1.0,5.0,94,0.00,,,0.76,,2013-01-02 08:52:00,
2013-01-02 04:02:00,39.0,37.0,30.06,NE,40,0.0,5.0,94,0.00,,,0.75,,2013-01-02 09:02:00,
2013-01-02 04:12:00,39.0,37.0,30.06,NE,40,0.0,5.0,94,0.00,,,0.75,,2013-01-02 09:12:00,
2013-01-02 04:22:00,39.0,37.0,30.07,NE,40,2.0,5.0,94,0.00,,,0.75,,2013-01-02 09:22:00,
2013-01-02 04:32:00,38.0,36.0,30.07,NE,42,2.0,6.0,94,0.00,,,0.75,,2013-01-02 09:32:00,
2013-01-02 04:43:00,38.0,36.0,30.07,NE,42,2.0,6.0,94,0.00,,,0.75,,2013-01-02 09:43:00,
2013-01-02 04:52:00,38.0,36.0,30.06,NE,42,1.0,3.0,92,0.00,,,0.75,,2013-01-02 09:52:00,
2013-01-02 05:02:00,38.0,36.0,30.07,NE,35,0.0,3.0,93,0.00,,,0.74,,2013-01-02 10:02:00,
2013-01-02 05:12:00,38.0,36.0,30.08,North,353,2.0,7.0,92,0.00,,,0.74,,2013-01-02 10:12:00,
2013-01-02 05:22:00,38.0,36.0,30.08,North,353,2.0,7.0,92,0.00,,,0.74,,2013-01-02 10:22:00,
2013-01-02 05:32:00,38.0,36.0,30.09,North,8,0.0,6.0,93,0.00,,,0.74,,2013-01-02 10:32:00,
2013-01-02 05:42:00,38.0,36.0,30.09,North,8,0.0,6.0,93,0.00,,,0.74,,2013-01-02 10:42:00,
2013-01-02 05:52:00,38.0,36.0,30.09,North,4,2.0,7.0,92,0.00,,,0.74,,2013-01-02 10:52:00,
2013-01-02 06:02:00,37.0,35.0,30.09,North,360,2.0,5.0,92,0.00,,,0.68,,2013-01-02 11:02:00,
2013-01-02 06:12:00,37.0,35.0,30.09,North,360,2.0,5.0,92,0.00,,,0.68,,2013-01-02 11:12:00,
2013-01-02 06:22:00,37.0,35.0,30.10,North,3,4.0,7.0,92,0.00,,,0.68,,2013-01-02 11:22:00,
2013-01-02 06:33:00,37.0,35.0,30.10,NE,48,1.0,8.0,91,0.00,,,0.68,,2013-01-02 11:33:00,
2013-01-02 06:42:00,37.0,35.0,30.10,NE,48,1.0,8.0,91,0.00,,,0.68,,2013-01-02 11:42:00,
2013-01-02 06:52:00,37.0,35.0,30.10,NE,54,2.0,6.0,92,0.00,,,0.68,,2013-01-02 11:52:00,
2013-01-02 07:03:00,37.0,35.0,30.11,NNE,28,2.0,6.0,92,0.00,,,0.60,,2013-01-02 12:03:00,
2013-01-02 07:12:00,37.0,35.0,30.11,NNE,28,2.0,6.0,92,0.00,,,0.60,,2013-01-02 12:12:00,
2013-01-02 07:22:00,37.0,35.0,30.11,NE,42,2.0,7.0,91,0.00,,,0.60,,2013-01-02 12:22:00,
2013-01-02 07:33:00,37.0,35.0,30.11,NE,55,3.0,7.0,91,0.00,,,0.60,,2013-01-02 12:33:00,
2013-01-02 07:43:00,37.0,35.0,30.11,NE,55,3.0,7.0,91,0.00,,,0.60,,2013-01-02 12:43:00,
2013-01-02 07:53:00,37.0,35.0,30.12,North,360,1.0,7.0,91,0.00,,,0.60,,2013-01-02 12:53:00,
2013-01-02 08:03:00,37.0,35.0,30.12,NE,55,3.0,8.0,91,0.00,,,0.50,,2013-01-02 13:03:00,
2013-01-02 08:12:00,37.0,35.0,30.12,NE,55,3.0,8.0,91,0.00,,,0.50,,2013-01-02 13:12:00,
2013-01-02 08:22:00,36.0,34.0,30.12,NNE,30,3.0,8.0,91,0.00,,,0.50,,2013-01-02 13:22:00,
2013-01-02 08:33:00,36.0,33.0,30.13,NNE,28,1.0,8.0,90,0.00,,,0.50,,2013-01-02 13:33:00,
2013-01-02 08:43:00,36.0,33.0,30.13,NNE,28,1.0,8.0,90,0.00,,,0.50,,2013-01-02 13:43:00,
2013-01-02 08:52:00,36.0,33.0,30.14,NE,37,0.0,8.0,90,0.00,,,0.50,,2013-01-02 13:52:00,
2013-01-02 09:02:00,36.0,34.0,30.13,NE,48,1.0,6.0,91,0.00,,,0.47,,2013-01-02 14:02:00,
2013-01-02 09:12:00,36.0,34.0,30.13,NE,48,1.0,6.0,91,0.00,,,0.47,,2013-01-02 14:12:00,
2013-01-02 09:22:00,36.0,33.0,30.13,NNE,17,1.0,3.0,90,0.00,,,0.47,,2013-01-02 14:22:00,
2013-01-02 09:33:00,37.0,35.0,30.14,NNE,30,0.0,3.0,91,0.00,,,0.47,,2013-01-02 14:33:00,
2013-01-02 09:43:00,37.0,35.0,30.14,NNE,30,0.0,3.0,91,0.00,,,0.47,,2013-01-02 14:43:00,
2013-01-02 09:53:00,37.0,34.0,30.13,NE,47,4.0,10.0,90,0.00,,,0.47,,2013-01-02 14:53:00,
2013-01-02 10:03:00,37.0,34.0,30.14,North,356,1.0,5.0,89,0.00,,,0.42,,2013-01-02 15:03:00,
2013-01-02 10:12:00,37.0,34.0,30.14,North,356,1.0,5.0,89,0.00,,,0.42,,2013-01-02 15:12:00,
2013-01-02 10:22:00,37.0,34.0,30.15,NNE,32,2.0,11.0,88,0.00,,,0.42,,2013-01-02 15:22:00,
2013-01-02 10:33:00,37.0,34.0,30.15,NNE,28,2.0,6.0,88,0.00,,,0.42,,2013-01-02 15:33:00,
2013-01-02 10:43:00,37.0,34.0,30.15,NNE,28,2.0,6.0,88,0.00,,,0.42,,2013-01-02 15:43:00,
2013-01-02 10:53:00,37.0,34.0,30.16,North,360,3.0,8.0,88,0.00,,,0.42,,2013-01-02 15:53:00,
2013-01-02 11:03:00,37.0,34.0,30.16,NNE,25,1.0,8.0,87,0.00,,,0.39,,2013-01-02 16:03:00,
2013-01-02 11:13:00,37.0,34.0,30.16,NNE,25,1.0,8.0,87,0.00,,,0.39,,2013-01-02 16:13:00,
2013-01-02 11:22:00,37.0,34.0,30.17,North,1,0.0,5.0,87,0.00,,,0.39,,2013-01-02 16:22:00,
2013-01-02 11:33:00,38.0,34.0,30.18,NE,45,2.0,5.0,87,0.00,,,0.39,,2013-01-02 16:33:00,
2013-01-02 11:43:00,38.0,34.0,30.18,NE,45,2.0,5.0,87,0.00,,,0.39,,2013-01-02 16:43:00,
2013-01-02 11:53:00,38.0,34.0,30.18,NE,45,2.0,5.0,86,0.00,,,0.39,,2013-01-02 16:53:00,
2013-01-02 12:03:00,38.0,34.0,30.17,North,360,0.0,5.0,86,0.00,,,0.36,,2013-01-02 17:03:00,
2013-01-02 12:13:00,38.0,34.0,30.17,North,360,0.0,5.0,86,0.00,,,0.36,,2013-01-02 17:13:00,
2013-01-02 12:23:00,38.0,34.0,30.16,NE,34,0.0,6.0,85,0.00,,,0.36,,2013-01-02 17:23:00,
2013-01-02 12:33:00,38.0,34.0,30.16,NE,38,2.0,6.0,85,0.00,,,0.36,,2013-01-02 17:33:00,
2013-01-02 12:43:00,38.0,34.0,30.16,NE,38,2.0,6.0,85,0.00,,,0.36,,2013-01-02 17:43:00,
2013-01-02 12:53:00,38.0,34.0,30.16,NNE,30,0.0,5.0,84,0.00,,,0.36,,2013-01-02 17:53:00,
2013-01-02 13:03:00,38.0,34.0,30.16,NNE,30,1.0,5.0,84,0.00,,,0.32,,2013-01-02 18:03:00,
2013-01-02 13:13:00,38.0,34.0,30.16,NNE,30,1.0,5.0,84,0.00,,,0.32,,2013-01-02 18:13:00,
2013-01-02 13:23:00,38.0,33.0,30.14,NNE,20,2.0,7.0,83,0.00,,,0.32,,2013-01-02 18:23:00,
2013-01-02 13:33:00,38.0,33.0,30.14,NE,35,0.0,6.0,83,0.00,,,0.32,,2013-01-02 18:33:00,
2013-01-02 13:43:00,38.0,33.0,30.14,NE,35,0.0,6.0,83,0.00,,,0.32,,2013-01-02 18:43:00,
2013-01-02 13:53:00,38.0,33.0,30.14,North,360,2.0,5.0,82,0.00,,,0.32,,2013-01-02 18:53:00,
2013-01-02 14:03:00,38.0,33.0,30.13,NNE,32,0.0,5.0,82,0.00,,,0.26,,2013-01-02 19:03:00,
2013-01-02 14:13:00,38.0,33.0,30.13,NNE,32,0.0,5.0,82,0.00,,,0.26,,2013-01-02 19:13:00,
2013-01-02 14:23:00,38.0,33.0,30.13,NNE,32,2.0,6.0,81,0.00,,,0.26,,2013-01-02 19:23:00,
2013-01-02 14:33:00,38.0,33.0,30.12,NNE,24,2.0,5.0,81,0.00,,,0.26,,2013-01-02 19:33:00,
2013-01-02 14:43:00,38.0,33.0,30.12,NNE,24,2.0,5.0,81,0.00,,,0.26,,2013-01-02 19:43:00,
2013-01-02 14:52:00,38.0,33.0,30.13,NNE,31,3.0,6.0,81,0.00,,,0.26,,2013-01-02 19:52:00,
2013-01-02 15:03:00,39.0,34.0,30.13,North,11,2.0,3.0,81,0.00,,,0.23,,2013-01-02 20:03:00,
2013-01-02 15:12:00,39.0,34.0,30.13,North,11,2.0,3.0,81,0.00,,,0.23,,2013-01-02 20:12:00,
2013-01-02 15:23:00,39.0,34.0,30.12,NNE,28,2.0,6.0,82,0.00,,,0.23,,2013-01-02 20:23:00,
2013-01-02 15:33:00,38.0,33.0,30.12,NNE,32,0.0,3.0,81,0.00,,,0.23,,2013-01-02 20:33:00,
2013-01-02 15:42:00,38.0,33.0,30.12,NNE,32,0.0,3.0,81,0.00,,,0.23,,2013-01-02 20:42:00,
2013-01-02 15:53:00,38.0,33.0,30.13,NNE,25,4.0,6.0,81,0.00,,,0.23,,2013-01-02 20:53:00,
2013-01-02 16:03:00,38.0,32.0,30.13,NE,47,2.0,5.0,80,0.00,,,0.21,,2013-01-02 21:03:00,
2013-01-02 16:13:00,38.0,32.0,30.13,NE,47,2.0,5.0,80,0.00,,,0.21,,2013-01-02 21:13:00,
2013-01-02 16:22:00,38.0,32.0,30.11,NE,47,1.0,5.0,80,0.00,,,0.21,,2013-01-02 21:22:00,
2013-01-02 16:33:00,38.0,32.0,30.15,NE,47,0.0,1.0,79,0.00,,,0.21,,2013-01-02 21:33:00,
2013-01-02 16:43:00,38.0,32.0,30.15,NE,47,0.0,1.0,79,0.00,,,0.21,,2013-01-02 21:43:00,
2013-01-02 16:52:00,38.0,32.0,30.15,NE,47,0.0,0.0,79,0.00,,,0.21,,2013-01-02 21:52:00,
2013-01-02 17:03:00,38.0,32.0,30.16,NE,47,0.0,0.0,79,0.00,,,0.16,,2013-01-02 22:03:00,
2013-01-02 17:13:00,38.0,32.0,30.16,NE,47,0.0,0.0,79,0.00,,,0.16,,2013-01-02 22:13:00,
2013-01-02 17:22:00,38.0,32.0,30.16,NE,47,0.0,0.0,79,0.00,,,0.16,,2013-01-02 22:22:00,
2013-01-02 17:32:00,38.0,32.0,30.16,NE,47,0.0,0.0,79,0.00,,,0.16,,2013-01-02 22:32:00,
2013-01-02 17:43:00,38.0,32.0,30.16,NE,47,0.0,0.0,79,0.00,,,0.16,,2013-01-02 22:43:00,
2013-01-02 17:52:00,38.0,32.0,30.12,NE,47,0.0,3.0,79,0.00,,,0.16,,2013-01-02 22:52:00,
2013-01-02 18:03:00,38.0,32.0,30.12,NE,47,0.0,2.0,80,0.00,,,0.14,,2013-01-02 23:03:00,
2013-01-02 18:13:00,38.0,32.0,30.11,NNE,17,1.0,4.0,79,0.00,,,0.14,,2013-01-02 23:13:00,
2013-01-02 18:23:00,38.0,32.0,30.11,NNE,17,1.0,4.0,79,0.00,,,0.14,,2013-01-02 23:23:00,
2013-01-02 18:33:00,38.0,32.0,30.11,NNE,16,1.0,4.0,80,0.00,,,0.14,,2013-01-02 23:33:00,
2013-01-02 18:43:00,38.0,32.0,30.11,NNE,16,1.0,4.0,80,0.00,,,0.14,,2013-01-02 23:43:00,
2013-01-02 18:52:00,37.0,32.0,30.11,NNE,16,2.0,4.0,81,0.00,,,0.14,,2013-01-02 23:52:00,
2013-01-02 19:02:00,37.0,31.0,30.13,NNE,23,0.0,5.0,80,0.00,,,0.10,,2013-01-03 00:02:00,
2013-01-02 19:12:00,37.0,31.0,30.13,NNE,23,0.0,5.0,80,0.00,,,0.10,,2013-01-03 00:12:00,
2013-01-02 19:22:00,37.0,31.0,30.12,North,7,0.0,5.0,80,0.00,,,0.10,,2013-01-03 00:22:00,
2013-01-02 19:38:00,37.0,31.0,30.14,North,7,1.0,3.0,80,0.00,,,0.10,,2013-01-03 00:38:00,
2013-01-02 19:52:00,37.0,31.0,30.14,North,7,0.0,5.0,80,0.00,,,0.10,,2013-01-03 00:52:00,
2013-01-02 20:02:00,37.0,31.0,30.14,North,7,0.0,2.0,80,0.00,,,0.05,,2013-01-03 01:02:00,
2013-01-02 20:12:00,37.0,31.0,30.14,North,7,0.0,2.0,80,0.00,,,0.05,,2013-01-03 01:12:00,
2013-01-02 20:22:00,37.0,31.0,30.14,North,7,0.0,2.0,80,0.00,,,0.05,,2013-01-03 01:22:00,
2013-01-02 20:32:00,37.0,32.0,30.14,North,7,0.0,0.0,81,0.00,,,0.05,,2013-01-03 01:32:00,
2013-01-02 20:43:00,37.0,32.0,30.14,North,7,0.0,0.0,81,0.00,,,0.05,,2013-01-03 01:43:00,
2013-01-02 20:53:00,37.0,32.0,30.15,North,7,0.0,0.0,81,0.00,,,0.05,,2013-01-03 01:53:00,
2013-01-02 21:02:00,37.0,32.0,30.15,North,7,0.0,0.0,81,0.00,,,0.02,,2013-01-03 02:02:00,
2013-01-02 21:12:00,37.0,32.0,30.15,North,7,0.0,0.0,81,0.00,,,0.02,,2013-01-03 02:12:00,
2013-01-02 21:22:00,37.0,32.0,30.16,North,7,0.0,2.0,82,0.00,,,0.02,,2013-01-03 02:22:00,
2013-01-02 21:33:00,37.0,32.0,30.16,North,7,0.0,0.0,82,0.00,,,0.02,,2013-01-03 02:33:00,
2013-01-02 21:43:00,37.0,32.0,30.16,North,7,0.0,0.0,82,0.00,,,0.02,,2013-01-03 02:43:00,
2013-01-02 21:52:00,37.0,32.0,30.16,North,7,0.0,0.0,82,0.00,,,0.02,,2013-01-03 02:52:00,
2013-01-02 22:02:00,37.0,32.0,30.15,North,7,0.0,0.0,83,0.00,,,0.01,,2013-01-03 03:02:00,
2013-01-02 22:12:00,37.0,32.0,30.16,North,7,0.0,0.0,83,0.00,,,0.01,,2013-01-03 03:12:00,
2013-01-02 22:22:00,37.0,32.0,30.16,North,7,0.0,0.0,83,0.00,,,0.01,,2013-01-03 03:22:00,
2013-01-02 22:46:00,36.0,31.0,30.15,North,7,0.0,0.0,83,0.00,,,0.01,,2013-01-03 03:46:00,
2013-01-02 22:52:00,36.0,31.0,30.15,North,7,0.0,1.0,83,0.00,,,0.01,,2013-01-03 03:52:00,
2013-01-02 23:03:00,36.0,31.0,30.15,North,7,0.0,1.0,83,0.00,,,0.00,,2013-01-03 04:03:00,
2013-01-02 23:12:00,36.0,31.0,30.15,North,7,0.0,1.0,83,0.00,,,0.00,,2013-01-03 04:12:00,
2013-01-02 23:22:00,36.0,31.0,30.16,North,7,0.0,0.0,83,0.00,,,0.00,,2013-01-03 04:22:00,
2013-01-02 23:32:00,36.0,32.0,30.16,North,7,0.0,1.0,84,0.00,,,0.00,,2013-01-03 04:32:00,
2013-01-02 23:42:00,36.0,32.0,30.16,North,7,0.0,1.0,84,0.00,,,0.00,,2013-01-03 04:42:00,
2013-01-02 23:52:00,36.0,32.0,30.17,North,7,0.0,0.0,84,0.00,,,0.00,,2013-01-03 04:52:00,